Location: New Frontier Mobile Home Park
(32.8448°N, 116.9675°W)
Time: 21:16:49
(UTC+00:00)

Atlas Centaur 2 - Pass Details

Date: 14 July 2020
Orbit: 459 x 1310 km, 30.4° (Epoch: 13 August)

Event Time Altitude Azimuth Distance (km) Brightness Sun altitude
Rises 04:31:46 0° 267° (W) 2,832 5.7 -17.3°
Reaches altitude 10° 04:34:17 10° 252° (WSW) 2,051 4.6 -17.7°
Maximum altitude 04:38:02 23° 200° (SSW) 1,555 3.4 -18.3°
Enters shadow 04:39:19 21° 180° (S) 1,692 3.4 -18.5°
